Weather History for LGKR - July, 2013

Change the Weather History Date:

Monday, July 15, 2013

  Actual Average Record
Temperature  
Mean Temperature 80 °F -  
Max Temperature 90 °F 88 °F 97 °F (2012)
Min Temperature 69 °F 65 °F 62 °F (2000)
Cooling Degree Days 14    
Growing Degree Days 30 (Base 50)    
Moisture  
Dew Point 64 °F    
Average Humidity 59    
Maximum Humidity 88    
Minimum Humidity 33    
Precipitation  
Precipitation 0.00 in 0.02 in - ()
Sea Level Pressure  
Sea Level Pressure 29.88 in    
Wind  
Wind Speed 5 mph ()    
Max Wind Speed 22 mph    
Max Gust Speed -    
Visibility 6.5 miles    
Events      
Averages and records for this station are not official NWS values.
T = Trace of Precipitation, MM = Missing Value Source: Averaged Metar Reports

Daily Weather History Graph

Daily Weather History Graph

Search for Another Location

Airport or City:

Trip Planner

Search our weather history database for the weather conditions in past years. The results will help you decide how hot, cold, wet, or windy it might be!

Date:

Astronomy

Jul. 15, 2013 Rise Set
Actual Time 6:25 AM EEST 9:07 PM EEST
Civil Twilight 5:53 AM EEST 9:38 PM EEST
Nautical Twilight 5:14 AM EEST 10:17 PM EEST
Astronomical Twilight 4:29 AM EEST 11:02 PM EEST
Moon 1:23 PM EEST (7/15) 12:11 AM EEST (7/15)
Length of Visible Light 15h 44m
Length of Day
14h 41m
Waxing Crescent, 42% of the Moon is Illuminated
Jul 15
Waxing Crescent
Jul 16
First Quarter
Jul 22
Full
Jul 29
Last Quarter
Aug 7
New

Hourly Weather History & Observations

Time (EEST) Temp. Heat Index Dew Point Humidity Pressure Visibility Wind Dir Wind Speed Gust Speed Precip Events Conditions
12:00 AM 77 °F - 64 °F 55% 29.89 in 6 mi NW 22.4 mph - -   Scattered Clouds
12:20 AM 77.0 °F - 64.4 °F 65% 29.89 in 6.2 mi WNW 3.5 mph - N/A   Scattered Clouds
12:50 AM 75.2 °F - 62.6 °F 65% 29.89 in 6.2 mi NNW 4.6 mph - N/A   Scattered Clouds
1:20 AM 75.2 °F - 62.6 °F 65% 29.89 in 6.2 mi WNW 5.8 mph - N/A   Scattered Clouds
1:50 AM 75.2 °F - 62.6 °F 65% 29.89 in 6.2 mi West 3.5 mph - N/A   Scattered Clouds
2:20 AM 75.2 °F - 62.6 °F 65% 29.89 in 6.2 mi Calm Calm - N/A   Scattered Clouds
2:50 AM 73.4 °F - 62.6 °F 69% 29.89 in - NW 3.5 mph - N/A   Clear
3:00 AM 73 °F - 63 °F 63% 29.90 in 6 mi NW 3.5 mph - -  
3:20 AM 73.4 °F - 62.6 °F 69% 29.89 in - WNW 4.6 mph - N/A   Clear
3:50 AM 71.6 °F - 62.6 °F 73% 29.89 in - WNW 3.5 mph - N/A   Clear
4:20 AM 71.6 °F - 62.6 °F 73% 29.89 in - Calm Calm - N/A   Clear
4:50 AM 69.8 °F - 62.6 °F 78% 29.89 in - Calm Calm - N/A   Clear
5:20 AM 69.8 °F - 62.6 °F 78% 29.89 in - Calm Calm - N/A   Clear
5:50 AM 69.8 °F - 64.4 °F 83% 29.89 in - Calm Calm - N/A   Clear
6:00 AM 70 °F - 64 °F 74% 29.90 in 6 mi Calm Calm - -  
6:20 AM 69.8 °F - 64.4 °F 83% 29.89 in - Calm Calm - N/A   Clear
6:50 AM 69.8 °F - 64.4 °F 83% 29.89 in - Calm Calm - N/A   Clear
7:20 AM 69.8 °F - 64.4 °F 83% 29.89 in - Calm Calm - N/A   Clear
7:50 AM 69.8 °F - 64.4 °F 83% 29.89 in - Calm Calm - N/A   Clear
8:20 AM 71.6 °F - 64.4 °F 78% 29.89 in - Calm Calm - N/A   Clear
8:50 AM 71.6 °F - 68.0 °F 88% 29.89 in - Calm Calm - N/A   Clear
9:00 AM 72 °F - 68 °F 82% 29.91 in 12 mi Calm Calm - -  
9:20 AM 73.4 °F - 68.0 °F 83% 29.89 in - Calm Calm - N/A   Clear
9:50 AM 75.2 °F - 68.0 °F 78% 29.89 in - Calm Calm - N/A   Clear
10:20 AM 77.0 °F - 68.0 °F 74% 29.89 in - Calm Calm - N/A   Clear
10:50 AM 80.6 °F 83.2 °F 68.0 °F 65% 29.89 in - Calm Calm - N/A   Clear
11:20 AM 82.4 °F 85.4 °F 68.0 °F 62% 29.89 in - Calm Calm - N/A   Clear
11:50 AM 84.2 °F 86.6 °F 66.2 °F 55% 29.89 in 6.2 mi Calm Calm - N/A   Partly Cloudy
12:00 PM 85 °F - 66 °F 44% 29.91 in 12 mi Calm Calm - -   Scattered Clouds
12:20 PM 86.0 °F 88.2 °F 66.2 °F 51% 29.89 in 6.2 mi Calm Calm - N/A   Partly Cloudy
12:50 PM 87.8 °F 89.4 °F 64.4 °F 46% 29.89 in 6.2 mi SE 6.9 mph - N/A   Partly Cloudy
1:20 PM 87.8 °F 89.4 °F 64.4 °F 46% 29.89 in 6.2 mi SE 6.9 mph - N/A   Partly Cloudy
1:50 PM 89.6 °F 90.1 °F 62.6 °F 40% 29.89 in 6.2 mi SSE 5.8 mph - N/A   Partly Cloudy
2:20 PM 89.6 °F 90.1 °F 62.6 °F 40% 29.89 in 6.2 mi ESE 5.8 mph - N/A   Partly Cloudy
2:50 PM 89.6 °F 91.1 °F 64.4 °F 43% 29.89 in 6.2 mi East 4.6 mph - N/A   Partly Cloudy
3:00 PM 90 °F - 65 °F 33% 29.89 in 6 mi East 4.6 mph - -   Scattered Clouds
3:20 PM 89.6 °F 91.1 °F 64.4 °F 43% 29.86 in 6.2 mi South 8.1 mph - N/A   Partly Cloudy
3:50 PM 89.6 °F 91.1 °F 64.4 °F 43% 29.86 in 6.2 mi East 6.9 mph - N/A   Partly Cloudy
4:20 PM 89.6 °F 91.1 °F 64.4 °F 43% 29.86 in 6.2 mi North 10.4 mph - N/A   Partly Cloudy
4:50 PM 89.6 °F 91.1 °F 64.4 °F 43% 29.86 in 6.2 mi NNW 10.4 mph - N/A   Partly Cloudy
5:20 PM 89.6 °F 91.1 °F 64.4 °F 43% 29.86 in 6.2 mi NNW 15.0 mph - N/A   Partly Cloudy
5:50 PM 87.8 °F 89.4 °F 64.4 °F 46% 29.86 in 6.2 mi NW 18.4 mph - N/A   Partly Cloudy
6:00 PM 88 °F - 64 °F 34% 29.87 in 6 mi NW 18.4 mph - -   Scattered Clouds
6:20 PM 87.8 °F 89.4 °F 64.4 °F 46% 29.86 in 6.2 mi NW 12.7 mph - N/A   Partly Cloudy
6:50 PM 87.8 °F 87.1 °F 59.0 °F 38% 29.86 in 6.2 mi NW 12.7 mph - N/A   Partly Cloudy
7:20 PM 87.8 °F 87.1 °F 59.0 °F 38% 29.86 in 6.2 mi NW 15.0 mph - N/A   Partly Cloudy
7:50 PM 86.0 °F 86.1 °F 60.8 °F 43% 29.83 in 6.2 mi NW 12.7 mph - N/A   Partly Cloudy
8:20 PM 86.0 °F 86.1 °F 60.8 °F 43% 29.83 in 6.2 mi WNW 12.7 mph - N/A   Partly Cloudy
8:50 PM 82.4 °F 82.5 °F 59.0 °F 45% 29.86 in 6.2 mi NW 9.2 mph - N/A   Partly Cloudy
9:00 PM 83 °F - 59 °F 34% 29.86 in 6 mi NW 17.9 mph - -   Scattered Clouds
9:20 PM 82.4 °F 82.5 °F 59.0 °F 45% 29.86 in 6.2 mi West 4.6 mph - N/A   Partly Cloudy
9:50 PM 78.8 °F - 60.8 °F 54% 29.86 in 6.2 mi WNW 6.9 mph - N/A   Partly Cloudy
10:20 PM 78.8 °F - 60.8 °F 54% 29.86 in - SW 5.8 mph - N/A   Clear
10:50 PM 78.8 °F - 60.8 °F 54% 29.86 in - WSW 6.9 mph - N/A   Clear
11:20 PM 77.0 °F - 60.8 °F 57% 29.89 in - Calm Calm - N/A   Clear
11:50 PM 77.0 °F - 60.8 °F 57% 29.89 in - West 3.5 mph - N/A   Clear